Location: Caltech
(34.1382°N, 118.1253°W)
Time: 06:59:34
(UTC-07:00)

Cosmos 2237 Rocket - Visible Passes

Search period start: 25 September 2016 00:00
Search period end: 05 October 2016 00:00
Orbit: 835 x 850 km, 71.0° (Epoch: 25 September)

Date Brightness Start Highest point End Pass type
(mag) Time Alt. Az. Time Alt. Az. Time Alt. Az.
25 Sep 3.4 04:26:25 10° N 04:31:45 41° ENE 04:37:01 10° SE visible
25 Sep 3.3 06:11:14 10° NW 06:15:27 22° W 06:19:38 10° SSW visible
25 Sep 3.3 19:13:38 10° SW 19:19:07 50° WNW 19:24:39 10° N visible
26 Sep 3.4 04:11:38 10° N 04:16:54 39° ENE 04:22:07 10° SE visible
26 Sep 3.2 05:56:18 10° NW 06:00:39 23° W 06:04:57 10° SSW visible
26 Sep 3.2 18:58:45 10° SW 19:04:17 53° WNW 19:09:50 10° N visible
27 Sep 3.5 03:56:51 10° N 04:02:03 37° ENE 04:07:13 10° SE visible
27 Sep 3.1 05:41:23 10° NW 05:45:50 25° WSW 05:50:16 10° SSW visible
28 Sep 3.6 03:42:03 10° N 03:48:08 33° E 03:52:18 10° SE visible
28 Sep 3.0 05:30:28 25° W 05:31:01 26° WSW 05:35:35 10° SSW visible
29 Sep5.003:38:14SE03:38:14SE03:25:03Nvisible
29 Sep 4.1 05:20:17 13° SSW 05:20:17 13° SSW 05:20:52 10° SSW visible
